Year,Month,Day,Hour,Minute,Value (Times are PST for barometer in hPa)
2021,06,28,00,00,949.54
2021,06,28,00,01,949.54
2021,06,28,00,02,949.54
2021,06,28,00,03,949.54
2021,06,28,00,04,949.54
2021,06,28,00,05,949.54
2021,06,28,00,06,949.54
2021,06,28,00,07,949.54
2021,06,28,00,08,949.54
2021,06,28,00,09,949.54
2021,06,28,00,10,949.54
2021,06,28,00,11,949.54
2021,06,28,00,12,949.54
2021,06,28,00,13,949.54
2021,06,28,00,14,949.54
2021,06,28,00,15,949.54
2021,06,28,00,16,949.54
2021,06,28,00,17,949.54
2021,06,28,00,18,949.54
2021,06,28,00,19,949.54
2021,06,28,00,20,949.54
2021,06,28,00,21,949.54
2021,06,28,00,22,949.54
2021,06,28,00,23,949.54
2021,06,28,00,24,949.54
2021,06,28,00,25,949.54
2021,06,28,00,26,949.54
2021,06,28,00,27,949.54
2021,06,28,00,28,949.54
2021,06,28,00,29,949.54
2021,06,28,00,30,949.54
2021,06,28,00,31,949.54
2021,06,28,00,32,949.54
2021,06,28,00,33,949.54
2021,06,28,00,34,949.54
2021,06,28,00,35,949.54
2021,06,28,00,36,949.54
2021,06,28,00,37,949.54
2021,06,28,00,38,949.54
2021,06,28,00,39,949.54
2021,06,28,00,40,949.54
2021,06,28,00,41,949.54
2021,06,28,00,42,949.54
2021,06,28,00,43,949.54
2021,06,28,00,44,949.54
2021,06,28,00,45,949.54
2021,06,28,00,46,949.54
2021,06,28,00,47,949.54
2021,06,28,00,48,949.54
2021,06,28,00,49,949.54
2021,06,28,00,50,949.54
2021,06,28,00,51,949.54
2021,06,28,00,52,949.54
2021,06,28,00,53,949.54
2021,06,28,00,54,949.54
2021,06,28,00,55,949.54
2021,06,28,00,56,949.54
2021,06,28,00,57,949.54
2021,06,28,00,58,949.54
2021,06,28,00,59,949.54
2021,06,28,01,00,949.54
2021,06,28,01,01,949.54
2021,06,28,01,02,949.54
2021,06,28,01,03,949.54
2021,06,28,01,04,949.54
2021,06,28,01,05,949.54
2021,06,28,01,06,949.54
2021,06,28,01,07,949.54
2021,06,28,01,08,949.54
2021,06,28,01,09,949.54
2021,06,28,01,10,949.54
2021,06,28,01,11,949.54
2021,06,28,01,12,949.54
2021,06,28,01,13,949.54
2021,06,28,01,14,949.54
2021,06,28,01,15,949.54
2021,06,28,01,16,949.54
2021,06,28,01,17,949.54
2021,06,28,01,18,949.54
2021,06,28,01,19,949.54
2021,06,28,01,20,949.54
2021,06,28,01,21,949.54
2021,06,28,01,22,949.54
2021,06,28,01,23,949.54
2021,06,28,01,24,949.54
2021,06,28,01,25,949.54
2021,06,28,01,26,949.54
2021,06,28,01,27,949.54
2021,06,28,01,28,949.54
2021,06,28,01,29,949.54
2021,06,28,01,30,949.54
2021,06,28,01,31,949.54
2021,06,28,01,32,949.54
2021,06,28,01,33,949.54
2021,06,28,01,34,949.54
2021,06,28,01,35,949.54
2021,06,28,01,36,949.54
2021,06,28,01,37,949.54
2021,06,28,01,38,949.54
2021,06,28,01,39,949.54
2021,06,28,01,40,949.54
2021,06,28,01,41,949.54
2021,06,28,01,42,949.54
2021,06,28,01,43,949.54
2021,06,28,01,44,949.54
2021,06,28,01,45,949.54
2021,06,28,01,46,949.54
2021,06,28,01,47,949.54
2021,06,28,01,48,949.54
2021,06,28,01,49,949.54
2021,06,28,01,50,949.54
2021,06,28,01,51,949.54
2021,06,28,01,52,949.54
2021,06,28,01,53,949.54
2021,06,28,01,54,949.54
2021,06,28,01,55,949.54
2021,06,28,01,56,949.54
2021,06,28,01,57,949.54
2021,06,28,01,58,949.54
2021,06,28,01,59,949.54
2021,06,28,02,00,949.54
2021,06,28,02,01,949.54
2021,06,28,02,02,949.54
2021,06,28,02,03,949.54
2021,06,28,02,04,949.54
2021,06,28,02,05,949.54
2021,06,28,02,14,926.25
2021,06,28,02,15,926.25
2021,06,28,02,16,926.25
2021,06,28,02,17,926.25
2021,06,28,02,18,926.25
2021,06,28,02,19,926.25
2021,06,28,02,20,926.25
2021,06,28,02,21,926.25
2021,06,28,02,22,926.25
2021,06,28,02,23,926.25
2021,06,28,02,24,926.25
2021,06,28,02,25,926.25
2021,06,28,02,26,926.25
2021,06,28,02,27,926.25
2021,06,28,02,28,926.25
2021,06,28,02,29,926.25
2021,06,28,02,30,926.25
2021,06,28,02,31,926.25
2021,06,28,02,32,926.25
2021,06,28,02,33,926.25
2021,06,28,02,34,926.25
2021,06,28,02,35,926.25
2021,06,28,02,36,926.25
2021,06,28,02,37,926.25
2021,06,28,02,38,926.25
2021,06,28,02,39,926.25
2021,06,28,02,40,926.25
2021,06,28,02,41,926.25
2021,06,28,02,42,926.25
2021,06,28,02,43,926.25
2021,06,28,02,44,926.25
2021,06,28,02,45,926.25
2021,06,28,02,46,926.25
2021,06,28,02,47,926.25
2021,06,28,02,48,926.25
2021,06,28,02,49,926.25
2021,06,28,02,50,926.25
2021,06,28,02,51,926.25
2021,06,28,02,52,926.25
2021,06,28,02,53,926.25
2021,06,28,02,54,926.25
2021,06,28,02,55,926.25
2021,06,28,02,56,926.25
2021,06,28,02,57,926.25
2021,06,28,02,58,926.25
2021,06,28,02,59,926.25
2021,06,28,03,00,926.25
2021,06,28,03,01,926.25
2021,06,28,03,02,926.25
2021,06,28,03,03,926.25
2021,06,28,03,04,926.25
2021,06,28,03,05,926.25
2021,06,28,03,06,926.25
2021,06,28,03,07,926.25
2021,06,28,03,08,926.25
2021,06,28,03,09,926.25
2021,06,28,03,10,926.69
2021,06,28,03,11,935.08
2021,06,28,03,12,935.95
2021,06,28,03,13,943.75
2021,06,28,03,14,943.75
2021,06,28,03,15,943.75
2021,06,28,03,16,943.75
2021,06,28,03,17,943.75
2021,06,28,03,18,943.75
2021,06,28,03,19,943.75
2021,06,28,03,20,943.75
2021,06,28,03,21,943.75
2021,06,28,03,22,943.75
2021,06,28,03,23,943.75
2021,06,28,03,24,943.75
2021,06,28,03,25,943.75
2021,06,28,03,26,943.75
2021,06,28,03,27,943.75
2021,06,28,03,28,943.75
2021,06,28,03,29,943.75
2021,06,28,03,30,943.75
2021,06,28,03,31,943.75
2021,06,28,03,32,943.75
2021,06,28,03,33,943.75
2021,06,28,03,34,943.75
2021,06,28,03,35,943.75
2021,06,28,03,36,943.75
2021,06,28,03,37,943.75
2021,06,28,03,38,943.75
2021,06,28,03,39,943.75
2021,06,28,03,40,943.75
2021,06,28,03,41,943.75
2021,06,28,03,42,943.75
2021,06,28,03,43,943.75
2021,06,28,03,44,943.75
2021,06,28,03,45,943.75
2021,06,28,03,46,943.75
2021,06,28,03,47,943.75
2021,06,28,03,48,943.75
2021,06,28,03,49,943.75
2021,06,28,03,50,943.75
2021,06,28,03,51,943.75
2021,06,28,03,52,943.75
2021,06,28,03,53,943.75
2021,06,28,03,54,943.75
2021,06,28,03,55,943.75
2021,06,28,03,56,943.75
2021,06,28,03,57,943.75
2021,06,28,03,58,943.75
2021,06,28,03,59,943.75
2021,06,28,04,00,943.75
2021,06,28,04,01,943.75
2021,06,28,04,02,943.75
2021,06,28,04,03,943.75
2021,06,28,04,04,942.93
2021,06,28,04,05,927.46
2021,06,28,04,06,927.46
2021,06,28,04,07,927.46
2021,06,28,04,08,927.46
2021,06,28,04,09,927.46
2021,06,28,04,10,927.46
2021,06,28,04,11,927.46
2021,06,28,04,12,927.46
2021,06,28,04,13,927.46
2021,06,28,04,14,927.46
2021,06,28,04,15,927.46
2021,06,28,04,16,927.46
2021,06,28,04,17,927.46
2021,06,28,04,18,927.46
2021,06,28,04,19,927.46
2021,06,28,04,20,927.46
2021,06,28,04,21,927.46
2021,06,28,04,22,927.46
2021,06,28,04,23,927.46
2021,06,28,04,24,928.57
2021,06,28,04,25,949.58
2021,06,28,04,26,949.58
2021,06,28,04,27,949.58
2021,06,28,04,28,949.58
2021,06,28,04,29,949.58
2021,06,28,04,30,949.58
2021,06,28,04,31,949.58
2021,06,28,04,32,949.58
2021,06,28,04,33,949.58
2021,06,28,04,34,949.58
2021,06,28,04,35,949.58
2021,06,28,04,36,949.58
2021,06,28,04,37,949.58
2021,06,28,04,38,949.58
2021,06,28,04,39,949.58
2021,06,28,04,40,949.58
2021,06,28,04,41,949.58
2021,06,28,04,42,949.58
2021,06,28,04,43,949.58
2021,06,28,04,44,949.58
2021,06,28,04,45,949.58
2021,06,28,04,46,949.58
2021,06,28,04,47,949.58
2021,06,28,04,48,949.58
2021,06,28,04,49,949.58
2021,06,28,04,50,949.58
2021,06,28,04,51,949.58
2021,06,28,04,52,949.58
2021,06,28,04,53,949.58
2021,06,28,04,54,949.58
2021,06,28,04,55,949.58
2021,06,28,04,56,949.58
2021,06,28,04,57,949.58
2021,06,28,04,58,949.58
2021,06,28,04,59,949.58
2021,06,28,05,00,949.58
2021,06,28,05,01,949.58
2021,06,28,05,02,949.58
2021,06,28,05,03,949.58
2021,06,28,05,04,949.58
2021,06,28,05,05,949.58
2021,06,28,05,06,949.58
2021,06,28,05,07,949.58
2021,06,28,05,08,949.58
2021,06,28,05,09,949.58
2021,06,28,05,10,949.58
2021,06,28,05,11,949.58
2021,06,28,05,12,949.58
2021,06,28,05,13,949.58
2021,06,28,05,14,949.58
2021,06,28,05,15,949.58
2021,06,28,05,16,949.58
2021,06,28,05,17,949.58
2021,06,28,05,18,949.58
2021,06,28,05,19,949.58
2021,06,28,05,20,949.58
2021,06,28,05,21,949.58
2021,06,28,05,22,949.58
2021,06,28,05,23,949.58
2021,06,28,05,24,949.58
2021,06,28,05,25,949.58
2021,06,28,05,26,949.58
2021,06,28,05,27,949.58
2021,06,28,05,28,949.58
2021,06,28,05,29,949.58
2021,06,28,05,30,949.58
2021,06,28,05,31,949.58
2021,06,28,05,32,949.58
2021,06,28,05,33,949.58
2021,06,28,05,34,949.58
2021,06,28,05,35,949.58
2021,06,28,05,36,949.58
2021,06,28,05,37,949.58
2021,06,28,05,38,949.67
2021,06,28,05,39,951.37
2021,06,28,05,40,951.37
2021,06,28,05,41,951.37
2021,06,28,05,42,951.37
2021,06,28,05,43,951.37
2021,06,28,05,44,951.37
2021,06,28,05,45,951.37
2021,06,28,05,46,951.37
2021,06,28,05,47,951.37
2021,06,28,05,48,951.37
2021,06,28,05,49,951.37
2021,06,28,05,50,951.37
2021,06,28,05,51,951.37
2021,06,28,05,52,951.37
2021,06,28,05,53,951.37
2021,06,28,05,54,951.37
2021,06,28,05,55,951.37
2021,06,28,05,56,951.37
2021,06,28,05,57,951.37
2021,06,28,05,58,951.37
2021,06,28,05,59,951.37
2021,06,28,06,00,949.95
2021,06,28,06,01,922.96
2021,06,28,06,02,922.96
2021,06,28,06,03,922.96
2021,06,28,06,04,922.96
2021,06,28,06,05,922.96
2021,06,28,06,06,922.96
2021,06,28,06,07,922.96
2021,06,28,06,08,923.39
2021,06,28,06,09,931.56
2021,06,28,06,10,931.56
2021,06,28,06,11,931.56
2021,06,28,06,12,931.56
2021,06,28,06,13,931.56
2021,06,28,06,14,931.56
2021,06,28,06,15,931.56
2021,06,28,06,16,932.51
2021,06,28,06,17,949.65
2021,06,28,06,18,949.65
2021,06,28,06,19,949.65
2021,06,28,06,20,949.65
2021,06,28,06,21,949.65
2021,06,28,06,22,949.65
2021,06,28,06,23,949.65
2021,06,28,06,24,949.65
2021,06,28,06,25,949.65
2021,06,28,06,26,949.65
2021,06,28,06,27,949.65
2021,06,28,06,28,949.65
2021,06,28,06,29,949.65
2021,06,28,06,30,949.65
2021,06,28,06,31,949.65
2021,06,28,06,32,949.65
2021,06,28,06,33,949.65
2021,06,28,06,34,949.65
2021,06,28,06,35,949.65
2021,06,28,06,36,949.65
2021,06,28,06,37,949.65
2021,06,28,06,38,951.16
2021,06,28,06,39,979.85
2021,06,28,06,40,979.85
2021,06,28,06,41,979.85
2021,06,28,06,42,979.85
2021,06,28,06,43,979.85
2021,06,28,06,44,979.85
2021,06,28,06,45,979.85
2021,06,28,06,46,979.85
2021,06,28,06,47,979.85
2021,06,28,06,48,979.85
2021,06,28,06,49,979.85
2021,06,28,06,50,979.85
2021,06,28,06,51,979.85
2021,06,28,06,52,979.85
2021,06,28,06,53,979.85
2021,06,28,06,54,979.85
2021,06,28,06,55,979.85
2021,06,28,06,56,1007.35
2021,06,28,06,57,1007.35
2021,06,28,06,58,1007.35
2021,06,28,06,59,1007.35
2021,06,28,07,00,1007.35
2021,06,28,07,01,1007.35
2021,06,28,07,02,1007.35
2021,06,28,07,03,1007.35
2021,06,28,07,04,1007.35
2021,06,28,07,05,1007.35
2021,06,28,07,06,1007.35
2021,06,28,07,07,1007.35
2021,06,28,07,08,1007.35
2021,06,28,07,09,1007.35
2021,06,28,07,10,1007.35
2021,06,28,07,11,1007.35
2021,06,28,07,12,1007.35
2021,06,28,07,13,1007.32
2021,06,28,07,14,1007.32
2021,06,28,07,15,1007.32
2021,06,28,07,16,1007.32
2021,06,28,07,17,1007.32
2021,06,28,07,18,1007.32
2021,06,28,07,19,1007.32
2021,06,28,07,20,1007.32
2021,06,28,07,21,1007.35
2021,06,28,07,22,1007.35
2021,06,28,07,23,1007.28
2021,06,28,07,24,1007.32
2021,06,28,07,25,1007.35
2021,06,28,07,26,1007.35
2021,06,28,07,27,1007.35
2021,06,28,07,28,1007.35
2021,06,28,07,29,1007.28
2021,06,28,07,30,1007.21
2021,06,28,07,31,1007.21
2021,06,28,07,32,1007.21
2021,06,28,07,33,1007.21
2021,06,28,07,34,1007.25
2021,06,28,07,35,1007.21
2021,06,28,07,36,1007.28
2021,06,28,07,37,1007.21
2021,06,28,07,38,1007.28
2021,06,28,07,39,1007.25
2021,06,28,07,40,1007.28
2021,06,28,07,41,1007.25
2021,06,28,07,42,1007.32
2021,06,28,07,43,1007.32
2021,06,28,07,44,1007.28
2021,06,28,07,45,1007.25
2021,06,28,07,46,1007.25
2021,06,28,07,47,1007.28
2021,06,28,07,48,1007.32
2021,06,28,07,49,1007.32
2021,06,28,07,50,1007.32
2021,06,28,07,51,1007.32
2021,06,28,07,52,1007.03
2021,06,28,07,53,1001.59
2021,06,28,07,54,1001.59
2021,06,28,07,55,1001.88
2021,06,28,07,56,1007.35
2021,06,28,07,57,1007.32
2021,06,28,07,58,1007.35
2021,06,28,07,59,1007.32
2021,06,28,08,00,1007.35
2021,06,28,08,01,1007.25
2021,06,28,08,02,1007.32
2021,06,28,08,03,1007.38
2021,06,28,08,04,1007.38
2021,06,28,08,05,1007.42
2021,06,28,08,06,1007.38
2021,06,28,08,07,1007.32
2021,06,28,08,08,1007.35
2021,06,28,08,09,1007.32
2021,06,28,08,10,1007.32
2021,06,28,08,11,1007.28
2021,06,28,08,12,1007.28
2021,06,28,08,13,1007.28
2021,06,28,08,14,1007.25
2021,06,28,08,15,1007.25
2021,06,28,08,16,1007.28
2021,06,28,08,17,1007.28
2021,06,28,08,18,1007.28
2021,06,28,08,19,1007.28
2021,06,28,08,20,1007.28
2021,06,28,08,21,1007.28
2021,06,28,08,22,1007.25
2021,06,28,08,23,1007.28
2021,06,28,08,24,1007.32
2021,06,28,08,25,1007.28
2021,06,28,08,26,1007.28
2021,06,28,08,27,1007.28
2021,06,28,08,28,1007.25
2021,06,28,08,29,1007.25
2021,06,28,08,30,1007.21
2021,06,28,08,31,1007.21
2021,06,28,08,32,1007.21
2021,06,28,08,33,1007.28
2021,06,28,08,34,1007.25
2021,06,28,08,35,1007.21
2021,06,28,08,36,1007.21
2021,06,28,08,37,1007.25
2021,06,28,08,38,1007.21
2021,06,28,08,39,1007.21
2021,06,28,08,40,1007.18
2021,06,28,08,41,1007.18
2021,06,28,08,42,1007.18
2021,06,28,08,43,1007.21
2021,06,28,08,44,1007.18
2021,06,28,08,45,1007.18
2021,06,28,08,46,1007.18
2021,06,28,08,47,1007.15
2021,06,28,08,48,1007.15
2021,06,28,08,49,1007.15
2021,06,28,08,50,1007.16
2021,06,28,08,51,1007.25
2021,06,28,08,52,1007.21
2021,06,28,08,53,1007.28
2021,06,28,08,54,1007.21
2021,06,28,08,55,1007.21
2021,06,28,08,56,1007.25
2021,06,28,08,57,1007.21
2021,06,28,08,58,1007.21
2021,06,28,08,59,1007.21
2021,06,28,09,00,1007.25
2021,06,28,09,01,1007.21
2021,06,28,09,02,1007.21
2021,06,28,09,03,1007.21
2021,06,28,09,04,1007.25
2021,06,28,09,05,1007.21
2021,06,28,09,06,1007.21
2021,06,28,09,07,1007.21
2021,06,28,09,08,1007.18
2021,06,28,09,09,1007.21
2021,06,28,09,10,1007.18
2021,06,28,09,11,1007.18
2021,06,28,09,12,1007.18
2021,06,28,09,13,1007.18
2021,06,28,09,14,1007.18
2021,06,28,09,15,1007.21
2021,06,28,09,16,1007.18
2021,06,28,09,17,1007.15
2021,06,28,09,18,1007.15
2021,06,28,09,19,1007.11
2021,06,28,09,20,1007.15
2021,06,28,09,21,1007.15
2021,06,28,09,22,1007.15
2021,06,28,09,23,1007.15
2021,06,28,09,24,1007.11
2021,06,28,09,25,1007.18
2021,06,28,09,26,1007.18
2021,06,28,09,27,1007.15
2021,06,28,09,28,1007.15
2021,06,28,09,29,1007.15
2021,06,28,09,30,1007.11
2021,06,28,09,31,1007.08
2021,06,28,09,32,1007.11
2021,06,28,09,33,1007.11
2021,06,28,09,34,1007.11
2021,06,28,09,35,1007.11
2021,06,28,09,36,1007.11
2021,06,28,09,37,1007.11
2021,06,28,09,38,1007.11
2021,06,28,09,39,1007.11
2021,06,28,09,40,1007.15
2021,06,28,09,41,1007.09
2021,06,28,09,42,1007.18
2021,06,28,09,43,1007.15
2021,06,28,09,44,1007.11
2021,06,28,09,45,1007.08
2021,06,28,09,46,1007.08
2021,06,28,09,47,1007.08
2021,06,28,09,48,1007.04
2021,06,28,09,49,1007.04
2021,06,28,09,50,1007.01
2021,06,28,09,51,1007.04
2021,06,28,09,52,1007.04
2021,06,28,09,53,1007.01
2021,06,28,09,54,1007.04
2021,06,28,09,55,1007.04
2021,06,28,09,56,1007.01
2021,06,28,09,57,1007.04
2021,06,28,09,58,1007.01
2021,06,28,09,59,1006.94
2021,06,28,10,00,1006.91
2021,06,28,10,01,1006.91
2021,06,28,10,02,1006.88
2021,06,28,10,03,1006.91
2021,06,28,10,04,1006.88
2021,06,28,10,05,1006.88
2021,06,28,10,06,1006.88
2021,06,28,10,07,1006.88
2021,06,28,10,08,1006.88
2021,06,28,10,09,1006.88
2021,06,28,10,10,1006.81
2021,06,28,10,11,1006.88
2021,06,28,10,12,1006.88
2021,06,28,10,13,1006.88
2021,06,28,10,14,1006.84
2021,06,28,10,15,1006.84
2021,06,28,10,16,1006.88
2021,06,28,10,17,1006.88
2021,06,28,10,18,1006.81
2021,06,28,10,19,1006.77
2021,06,28,10,20,1006.81
2021,06,28,10,21,1006.84
2021,06,28,10,22,1006.77
2021,06,28,10,23,1006.77
2021,06,28,10,24,1006.71
2021,06,28,10,25,1006.67
2021,06,28,10,26,1006.74
2021,06,28,10,27,1006.71
2021,06,28,10,28,1006.67
2021,06,28,10,29,1006.71
2021,06,28,10,30,1006.67
2021,06,28,10,31,1006.65
2021,06,28,10,32,1006.74
2021,06,28,10,33,1006.71
2021,06,28,10,34,1006.71
2021,06,28,10,35,1006.67
2021,06,28,10,36,1006.67
2021,06,28,10,37,1006.64
2021,06,28,10,38,1006.67
2021,06,28,10,39,1006.67
2021,06,28,10,40,1006.64
2021,06,28,10,41,1006.67
2021,06,28,10,42,1006.67
2021,06,28,10,43,1006.64
2021,06,28,10,44,1006.64
2021,06,28,10,45,1006.64
2021,06,28,10,46,1006.64
2021,06,28,10,47,1006.60
2021,06,28,10,48,1006.57
2021,06,28,10,49,1006.60
2021,06,28,10,50,1006.64
2021,06,28,10,51,1006.64
2021,06,28,10,52,1006.64
2021,06,28,10,53,1006.60
2021,06,28,10,54,1006.64
2021,06,28,10,55,1006.64
2021,06,28,10,56,1006.60
2021,06,28,10,57,1006.60
2021,06,28,10,58,1006.57
2021,06,28,10,59,1006.60
2021,06,28,11,00,1006.57
2021,06,28,11,01,1006.57
2021,06,28,11,02,1006.57
2021,06,28,11,03,1006.60
2021,06,28,11,04,1006.57
2021,06,28,11,05,1006.54
2021,06,28,11,06,1006.57
2021,06,28,11,07,1006.64
2021,06,28,11,08,1006.54
2021,06,28,11,09,1006.64
2021,06,28,11,10,1006.60
2021,06,28,11,11,1006.64
2021,06,28,11,12,1006.54
2021,06,28,11,13,1006.54
2021,06,28,11,14,1006.54
2021,06,28,11,15,1006.54
2021,06,28,11,16,1006.57
2021,06,28,11,17,1006.60
2021,06,28,11,18,1006.57
2021,06,28,11,19,1006.57
2021,06,28,11,20,1006.57
2021,06,28,11,21,1006.50
2021,06,28,11,22,1006.50
2021,06,28,11,23,1006.54
2021,06,28,11,24,1006.50
2021,06,28,11,25,1006.57
2021,06,28,11,26,1006.54
2021,06,28,11,27,1006.50
2021,06,28,11,28,1006.47
2021,06,28,11,29,1006.47
2021,06,28,11,30,1006.47
2021,06,28,11,31,1006.50
2021,06,28,11,32,1006.50
2021,06,28,11,33,1006.50
2021,06,28,11,34,1006.47
2021,06,28,11,35,1006.44
2021,06,28,11,36,1006.47
2021,06,28,11,37,1006.44
2021,06,28,11,38,1006.44
2021,06,28,11,39,1006.47
2021,06,28,11,40,1006.40
2021,06,28,11,41,1006.44
2021,06,28,11,42,1006.37
2021,06,28,11,43,1006.37
2021,06,28,11,44,1006.37
2021,06,28,11,45,1006.37
2021,06,28,11,46,1006.33
2021,06,28,11,47,1006.37
2021,06,28,11,48,1006.33
2021,06,28,11,49,1006.30
2021,06,28,11,50,1006.37
2021,06,28,11,51,1006.33
2021,06,28,11,52,1006.33
2021,06,28,11,53,1006.33
2021,06,28,11,54,1006.30
2021,06,28,11,55,1006.30
2021,06,28,11,56,1006.30
2021,06,28,11,57,1006.33
2021,06,28,11,58,1006.30
2021,06,28,11,59,1006.27
2021,06,28,12,00,1006.27
2021,06,28,12,01,1006.27
2021,06,28,12,02,1006.27
2021,06,28,12,03,1006.30
2021,06,28,12,04,1006.27
2021,06,28,12,05,1006.30
2021,06,28,12,06,1006.27
2021,06,28,12,07,1006.27
2021,06,28,12,08,1006.27
2021,06,28,12,09,1006.27
2021,06,28,12,10,1006.23
2021,06,28,12,11,1006.23
2021,06,28,12,12,1006.20
2021,06,28,12,13,1006.20
2021,06,28,12,14,1006.13
2021,06,28,12,15,1006.16
2021,06,28,12,16,1006.13
2021,06,28,12,17,1006.06
2021,06,28,12,18,1006.06
2021,06,28,12,19,1006.06
2021,06,28,12,20,1006.10
2021,06,28,12,21,1006.06
2021,06,28,12,22,1006.03
2021,06,28,12,23,1006.03
2021,06,28,12,24,1006.03
2021,06,28,12,25,1005.99
2021,06,28,12,26,1005.99
2021,06,28,12,27,1005.96
2021,06,28,12,28,1005.99
2021,06,28,12,29,1005.96
2021,06,28,12,30,1005.99
2021,06,28,12,31,1005.99
2021,06,28,12,32,1005.96
2021,06,28,12,33,1005.93
2021,06,28,12,34,1005.96
2021,06,28,12,35,1005.93
2021,06,28,12,36,1005.93
2021,06,28,12,37,1005.89
2021,06,28,12,38,1005.89
2021,06,28,12,39,1005.89
2021,06,28,12,40,1005.86
2021,06,28,12,41,1005.83
2021,06,28,12,42,1005.86
2021,06,28,12,43,1005.83
2021,06,28,12,44,1005.83
2021,06,28,12,45,1005.83
2021,06,28,12,46,1005.79
2021,06,28,12,47,1005.86
2021,06,28,12,48,1005.86
2021,06,28,12,49,1005.83
2021,06,28,12,50,1005.83
2021,06,28,12,51,1005.76
2021,06,28,12,52,1005.76
2021,06,28,12,53,1005.72
2021,06,28,12,54,1005.72
2021,06,28,12,55,1005.72
2021,06,28,12,56,1005.72
2021,06,28,12,57,1005.72
2021,06,28,12,58,1005.72
2021,06,28,12,59,1005.72
2021,06,28,13,00,1005.76
2021,06,28,13,01,1005.72
2021,06,28,13,02,1005.66
2021,06,28,13,03,1005.69
2021,06,28,13,04,1005.62
2021,06,28,13,05,1005.69
2021,06,28,13,06,1005.62
2021,06,28,13,07,1005.59
2021,06,28,13,08,1005.55
2021,06,28,13,09,1005.59
2021,06,28,13,10,1005.55
2021,06,28,13,11,1005.49
2021,06,28,13,12,1005.49
2021,06,28,13,13,1005.45
2021,06,28,13,14,1005.45
2021,06,28,13,15,1005.45
2021,06,28,13,16,1005.42
2021,06,28,13,17,1005.39
2021,06,28,13,18,1005.39
2021,06,28,13,19,1005.35
2021,06,28,13,20,1005.35
2021,06,28,13,21,1005.32
2021,06,28,13,22,1005.32
2021,06,28,13,23,1005.32
2021,06,28,13,24,1005.28
2021,06,28,13,25,1005.28
2021,06,28,13,26,1005.28
2021,06,28,13,27,1005.28
2021,06,28,13,28,1005.28
2021,06,28,13,29,1005.28
2021,06,28,13,30,1005.22
2021,06,28,13,31,1005.25
2021,06,28,13,32,1005.22
2021,06,28,13,33,1005.25
2021,06,28,13,34,1005.32
2021,06,28,13,35,1005.22
2021,06,28,13,36,1005.18
2021,06,28,13,37,1005.22
2021,06,28,13,38,1005.18
2021,06,28,13,39,1005.22
2021,06,28,13,40,1005.22
2021,06,28,13,41,1005.18
2021,06,28,13,42,1005.18
2021,06,28,13,43,1005.11
2021,06,28,13,44,1005.11
2021,06,28,13,45,1005.11
2021,06,28,13,46,1005.11
2021,06,28,13,47,1005.08
2021,06,28,13,48,1005.05
2021,06,28,13,49,1004.57
2021,06,28,13,50,1005.01
2021,06,28,13,51,1005.05
2021,06,28,13,52,1005.08
2021,06,28,13,53,1005.08
2021,06,28,13,54,1005.08
2021,06,28,13,55,1005.08
2021,06,28,13,56,1005.08
2021,06,28,13,57,1005.08
2021,06,28,13,58,1004.91
2021,06,28,13,59,1004.91
2021,06,28,14,00,1004.40
2021,06,28,14,01,1004.91
2021,06,28,14,02,1004.91
2021,06,28,14,03,1004.91
2021,06,28,14,04,1004.91
2021,06,28,14,05,1004.91
2021,06,28,14,06,1004.91
2021,06,28,14,07,1003.90
2021,06,28,14,08,984.66
2021,06,28,14,09,984.66
2021,06,28,14,10,984.66
2021,06,28,14,11,984.66
2021,06,28,14,12,984.66
2021,06,28,14,13,985.09
2021,06,28,14,14,993.23
2021,06,28,14,15,993.23
2021,06,28,14,16,993.52
2021,06,28,14,17,999.02
2021,06,28,14,18,999.02
2021,06,28,14,19,999.02
2021,06,28,14,20,1004.67
2021,06,28,14,21,1004.67
2021,06,28,14,22,1004.67
2021,06,28,14,23,1004.71
2021,06,28,14,24,1004.71
2021,06,28,14,25,1004.71
2021,06,28,14,26,1004.71
2021,06,28,14,27,1004.71
2021,06,28,14,28,1004.71
2021,06,28,14,29,1004.71
2021,06,28,14,30,1004.71
2021,06,28,14,31,1004.70
2021,06,28,14,32,1004.54
2021,06,28,14,33,1004.06
2021,06,28,14,34,1004.06
2021,06,28,14,35,1004.06
2021,06,28,14,36,1004.06
2021,06,28,14,37,1004.15
2021,06,28,14,38,1004.57
2021,06,28,14,39,1004.57
2021,06,28,14,40,1004.64
2021,06,28,14,41,1004.61
2021,06,28,14,42,1004.57
2021,06,28,14,43,1004.57
2021,06,28,14,44,1004.57
2021,06,28,14,45,1004.61
2021,06,28,14,46,1004.61
2021,06,28,14,47,1004.61
2021,06,28,14,48,1004.57
2021,06,28,14,49,1004.50
2021,06,28,14,50,1004.54
2021,06,28,14,51,1004.54
2021,06,28,14,52,1004.47
2021,06,28,14,53,1004.50
2021,06,28,14,54,1004.47
2021,06,28,14,55,1004.50
2021,06,28,14,56,1004.54
2021,06,28,14,57,1004.56
2021,06,28,14,58,1004.40
2021,06,28,14,59,1004.40
2021,06,28,15,00,1004.47
2021,06,28,15,01,1004.50
2021,06,28,15,02,1004.47
2021,06,28,15,03,1004.53
2021,06,28,15,04,1004.35
2021,06,28,15,05,1004.49
2021,06,28,15,06,1004.37
2021,06,28,15,07,1004.43
2021,06,28,15,08,1004.34
2021,06,28,15,09,1004.34
2021,06,28,15,10,1004.34
2021,06,28,15,11,1004.34
2021,06,28,15,12,1004.30
2021,06,28,15,13,1004.34
2021,06,28,15,14,1004.34
2021,06,28,15,15,1004.37
2021,06,28,15,16,1004.34
2021,06,28,15,17,1004.34
2021,06,28,15,18,1004.30
2021,06,28,15,19,1004.27
2021,06,28,15,20,1004.30
2021,06,28,15,21,1004.30
2021,06,28,15,22,1004.40
2021,06,28,15,23,1004.37
2021,06,28,15,24,1004.37
2021,06,28,15,25,1004.37
2021,06,28,15,26,1004.30
2021,06,28,15,27,1004.30
2021,06,28,15,28,1004.27
2021,06,28,15,29,1004.27
2021,06,28,15,30,1004.27
2021,06,28,15,31,1004.23
2021,06,28,15,32,1004.20
2021,06,28,15,33,1004.17
2021,06,28,15,34,1004.13
2021,06,28,15,35,1004.13
2021,06,28,15,36,1004.03
2021,06,28,15,37,1004.06
2021,06,28,15,38,1004.10
2021,06,28,15,39,1004.06
2021,06,28,15,40,1004.06
2021,06,28,15,41,1004.03
2021,06,28,15,42,1004.03
2021,06,28,15,43,1004.03
2021,06,28,15,44,1004.06
2021,06,28,15,45,1004.06
2021,06,28,15,46,1004.10
2021,06,28,15,47,1004.10
2021,06,28,15,48,1004.10
2021,06,28,15,49,1004.06
2021,06,28,15,50,1004.06
2021,06,28,15,51,1004.03
2021,06,28,15,52,1003.93
2021,06,28,15,53,1003.93
2021,06,28,15,54,1003.90
2021,06,28,15,55,1004.00
2021,06,28,15,56,1003.96
2021,06,28,15,57,1003.96
2021,06,28,15,58,1004.00
2021,06,28,15,59,1003.96
2021,06,28,16,00,1003.96
2021,06,28,16,01,1003.96
2021,06,28,16,02,1003.96
2021,06,28,16,03,1003.96
2021,06,28,16,04,1003.96
2021,06,28,16,05,1003.93
2021,06,28,16,06,1003.90
2021,06,28,16,07,1003.90
2021,06,28,16,08,1003.90
2021,06,28,16,09,1003.86
2021,06,28,16,10,1003.86
2021,06,28,16,11,1003.83
2021,06,28,16,12,1003.79
2021,06,28,16,13,1003.79
2021,06,28,16,14,1003.76
2021,06,28,16,15,1003.76
2021,06,28,16,16,1003.73
2021,06,28,16,17,1003.73
2021,06,28,16,18,1003.73
2021,06,28,16,19,1003.69
2021,06,28,16,20,1003.69
2021,06,28,16,21,1003.69